Time,TemperatureF,DewpointF,PressureIn,WindDirection,WindDirectionDegrees,WindSpeedMPH,WindSpeedGustMPH,Humidity,HourlyPrecipIn,Conditions,Clouds,dailyrainin,SoftwareType,DateUTC
2013-05-03 00:03:00,69.0,69.0,29.84,North,0,0.0,0.0,100,99.99,,,-99.99,,2013-05-03 04:03:00,
2013-05-03 00:12:00,69.0,69.0,29.84,North,0,0.0,0.0,100,99.99,,,-99.99,,2013-05-03 04:12:00,
2013-05-03 00:23:00,69.0,69.0,29.84,North,0,0.0,0.0,100,99.99,,,-99.99,,2013-05-03 04:23:00,
2013-05-03 00:32:00,69.0,69.0,29.84,North,0,0.0,0.0,100,99.99,,,-99.99,,2013-05-03 04:32:00,
2013-05-03 00:42:00,69.0,69.0,29.84,North,0,0.0,0.0,100,99.99,,,-99.99,,2013-05-03 04:42:00,
2013-05-03 00:53:00,68.0,68.0,29.84,North,0,0.0,0.0,100,99.99,,,-99.99,,2013-05-03 04:53:00,
2013-05-03 01:02:00,68.0,68.0,29.84,North,0,0.0,0.0,100,99.99,,,-99.99,,2013-05-03 05:02:00,
2013-05-03 01:12:00,68.0,68.0,29.84,North,0,0.0,0.0,100,99.99,,,-99.99,,2013-05-03 05:12:00,
2013-05-03 01:21:00,68.0,68.0,29.84,North,0,0.0,0.0,100,99.99,,,-99.99,,2013-05-03 05:21:00,
2013-05-03 01:32:00,68.0,68.0,29.83,North,0,0.0,0.0,100,99.99,,,-99.99,,2013-05-03 05:32:00,
2013-05-03 01:42:00,68.0,68.0,29.83,North,0,0.0,0.0,100,99.99,,,-99.99,,2013-05-03 05:42:00,
2013-05-03 01:52:00,68.0,68.0,29.82,North,0,0.0,0.0,100,99.99,,,-99.99,,2013-05-03 05:52:00,
2013-05-03 02:02:00,68.0,68.0,29.81,North,0,0.0,0.0,100,99.99,,,-99.99,,2013-05-03 06:02:00,
2013-05-03 02:12:00,68.0,68.0,29.80,South,180,2.0,5.0,100,99.99,,,-99.99,,2013-05-03 06:12:00,
2013-05-03 02:21:00,68.0,68.0,29.80,South,180,2.0,5.0,100,99.99,,,-99.99,,2013-05-03 06:21:00,
2013-05-03 02:32:00,68.0,68.0,29.80,SSE,153,1.0,4.0,100,99.99,,,-99.99,,2013-05-03 06:32:00,
2013-05-03 02:42:00,68.0,68.0,29.80,SSE,153,1.0,4.0,100,99.99,,,-99.99,,2013-05-03 06:42:00,
2013-05-03 02:52:00,67.0,67.0,29.79,WSW,246,0.0,2.0,100,99.99,,,-99.99,,2013-05-03 06:52:00,
2013-05-03 03:01:00,67.0,67.0,29.79,NW,307,0.0,2.0,100,99.99,,,-99.99,,2013-05-03 07:01:00,
2013-05-03 03:11:00,67.0,67.0,29.79,NW,307,0.0,2.0,100,99.99,,,-99.99,,2013-05-03 07:11:00,
2013-05-03 03:21:00,67.0,67.0,29.79,North,0,0.0,0.0,100,99.99,,,-99.99,,2013-05-03 07:21:00,
2013-05-03 03:32:00,67.0,67.0,29.78,North,0,0.0,0.0,100,99.99,,,-99.99,,2013-05-03 07:32:00,
2013-05-03 03:42:00,67.0,67.0,29.78,North,0,0.0,0.0,100,99.99,,,-99.99,,2013-05-03 07:42:00,
2013-05-03 03:52:00,67.0,67.0,29.78,North,0,0.0,0.0,100,99.99,,,-99.99,,2013-05-03 07:52:00,
2013-05-03 04:02:00,67.0,67.0,29.78,North,0,0.0,0.0,100,99.99,,,-99.99,,2013-05-03 08:02:00,
2013-05-03 04:12:00,67.0,67.0,29.78,North,0,0.0,0.0,100,99.99,,,-99.99,,2013-05-03 08:12:00,
2013-05-03 04:21:00,67.0,67.0,29.78,North,0,0.0,0.0,100,99.99,,,-99.99,,2013-05-03 08:21:00,
2013-05-03 04:32:00,67.0,67.0,29.77,North,0,0.0,0.0,100,99.99,,,-99.99,,2013-05-03 08:32:00,
2013-05-03 04:42:00,67.0,67.0,29.77,North,0,0.0,0.0,100,99.99,,,-99.99,,2013-05-03 08:42:00,
2013-05-03 04:53:00,67.0,67.0,29.77,North,0,0.0,0.0,100,99.99,,,-99.99,,2013-05-03 08:53:00,
2013-05-03 05:01:00,67.0,67.0,29.77,North,0,0.0,0.0,100,99.99,,,-99.99,,2013-05-03 09:01:00,
2013-05-03 05:12:00,67.0,67.0,29.77,North,0,0.0,0.0,100,99.99,,,-99.99,,2013-05-03 09:12:00,
2013-05-03 05:21:00,67.0,67.0,29.78,North,0,0.0,0.0,100,99.99,,,-99.99,,2013-05-03 09:21:00,
2013-05-03 05:32:00,67.0,67.0,29.78,North,0,0.0,0.0,100,99.99,,,-99.99,,2013-05-03 09:32:00,
2013-05-03 05:42:00,67.0,67.0,29.78,North,0,0.0,0.0,100,99.99,,,-99.99,,2013-05-03 09:42:00,
2013-05-03 05:53:00,67.0,67.0,29.78,North,0,0.0,0.0,100,99.99,,,-99.99,,2013-05-03 09:53:00,
2013-05-03 06:03:00,67.0,67.0,29.79,North,0,0.0,0.0,100,99.99,,,-99.99,,2013-05-03 10:03:00,
2013-05-03 06:12:00,67.0,67.0,29.79,North,0,0.0,0.0,100,99.99,,,-99.99,,2013-05-03 10:12:00,
2013-05-03 06:22:00,67.0,67.0,29.79,North,0,0.0,0.0,100,99.99,,,-99.99,,2013-05-03 10:22:00,
2013-05-03 06:32:00,67.0,67.0,29.78,North,0,0.0,0.0,100,99.99,,,-99.99,,2013-05-03 10:32:00,
2013-05-03 06:42:00,67.0,67.0,29.78,North,0,0.0,0.0,100,99.99,,,-99.99,,2013-05-03 10:42:00,
2013-05-03 06:52:00,67.0,67.0,29.78,North,0,0.0,0.0,100,99.99,,,-99.99,,2013-05-03 10:52:00,
2013-05-03 07:02:00,66.0,66.0,29.78,North,0,0.0,0.0,100,99.99,,,-99.99,,2013-05-03 11:02:00,
2013-05-03 07:11:00,66.0,66.0,29.78,North,0,0.0,0.0,100,99.99,,,-99.99,,2013-05-03 11:11:00,
2013-05-03 07:22:00,67.0,67.0,29.79,NNW,333,1.0,3.0,100,99.99,,,-99.99,,2013-05-03 11:22:00,
2013-05-03 07:32:00,67.0,67.0,29.79,NW,311,2.0,4.0,100,99.99,,,-99.99,,2013-05-03 11:32:00,
2013-05-03 07:42:00,67.0,67.0,29.79,NW,311,2.0,4.0,100,99.99,,,-99.99,,2013-05-03 11:42:00,
2013-05-03 07:52:00,67.0,67.0,29.79,North,0,0.0,0.0,100,99.99,,,-99.99,,2013-05-03 11:52:00,
2013-05-03 08:02:00,67.0,67.0,29.79,North,0,0.0,0.0,100,99.99,,,-99.99,,2013-05-03 12:02:00,
2013-05-03 08:11:00,67.0,67.0,29.79,North,0,0.0,0.0,100,99.99,,,-99.99,,2013-05-03 12:11:00,
2013-05-03 08:21:00,67.0,67.0,29.79,North,0,0.0,0.0,100,99.99,,,-99.99,,2013-05-03 12:21:00,
2013-05-03 08:32:00,68.0,68.0,29.79,NNE,27,1.0,5.0,100,99.99,,,-99.99,,2013-05-03 12:32:00,
2013-05-03 08:42:00,68.0,68.0,29.79,NNE,27,1.0,5.0,100,99.99,,,-99.99,,2013-05-03 12:42:00,
2013-05-03 08:52:00,68.0,68.0,29.80,NNE,25,3.0,6.0,100,99.99,,,-99.99,,2013-05-03 12:52:00,
2013-05-03 09:01:00,68.0,68.0,29.80,NNE,23,2.0,4.0,100,99.99,,,-99.99,,2013-05-03 13:01:00,
2013-05-03 09:11:00,68.0,68.0,29.80,NNE,23,2.0,4.0,100,99.99,,,-99.99,,2013-05-03 13:11:00,
2013-05-03 09:22:00,68.0,68.0,29.80,North,10,3.0,5.0,100,99.99,,,-99.99,,2013-05-03 13:22:00,
2013-05-03 09:32:00,69.0,69.0,29.80,East,80,2.0,4.0,100,99.99,,,-99.99,,2013-05-03 13:32:00,
2013-05-03 09:42:00,69.0,69.0,29.80,East,80,2.0,4.0,100,99.99,,,-99.99,,2013-05-03 13:42:00,
2013-05-03 09:52:00,70.0,70.0,29.79,NNE,32,3.0,5.0,100,99.99,,,-99.99,,2013-05-03 13:52:00,
2013-05-03 10:02:00,70.0,70.0,29.79,NNE,17,2.0,5.0,100,99.99,,,-99.99,,2013-05-03 14:02:00,
2013-05-03 10:11:00,70.0,70.0,29.79,NNE,17,2.0,5.0,100,99.99,,,-99.99,,2013-05-03 14:11:00,
2013-05-03 10:22:00,71.0,71.0,29.79,NNE,15,4.0,7.0,100,99.99,,,-99.99,,2013-05-03 14:22:00,
2013-05-03 10:32:00,72.0,72.0,29.80,North,353,4.0,6.0,100,99.99,,,-99.99,,2013-05-03 14:32:00,
2013-05-03 10:42:00,72.0,72.0,29.80,North,353,4.0,6.0,100,99.99,,,-99.99,,2013-05-03 14:42:00,
2013-05-03 10:52:00,74.0,74.0,29.79,NE,49,3.0,5.0,100,99.99,,,-99.99,,2013-05-03 14:52:00,
2013-05-03 11:01:00,75.0,74.0,29.79,WNW,290,4.0,6.0,96,99.99,,,-99.99,,2013-05-03 15:01:00,
2013-05-03 11:11:00,75.0,74.0,29.79,WNW,290,4.0,6.0,96,99.99,,,-99.99,,2013-05-03 15:11:00,
2013-05-03 11:22:00,77.0,72.0,29.79,NW,308,4.0,6.0,86,99.99,,,-99.99,,2013-05-03 15:22:00,
2013-05-03 11:32:00,77.0,71.0,29.79,ENE,63,4.0,8.0,83,99.99,,,-99.99,,2013-05-03 15:32:00,
2013-05-03 11:43:00,77.0,71.0,29.79,ENE,63,4.0,8.0,83,99.99,,,-99.99,,2013-05-03 15:43:00,
2013-05-03 11:53:00,77.0,71.0,29.79,North,349,5.0,8.0,83,99.99,,,-99.99,,2013-05-03 15:53:00,
2013-05-03 12:03:00,77.0,71.0,29.79,NNE,20,6.0,9.0,82,99.99,,,-99.99,,2013-05-03 16:03:00,
2013-05-03 12:13:00,77.0,71.0,29.79,NNE,20,6.0,9.0,82,99.99,,,-99.99,,2013-05-03 16:13:00,
2013-05-03 12:23:00,78.0,69.0,29.79,ENE,58,5.0,11.0,74,99.99,,,-99.99,,2013-05-03 16:23:00,
2013-05-03 12:32:00,78.0,68.0,29.78,North,359,2.0,4.0,72,99.99,,,-99.99,,2013-05-03 16:32:00,
2013-05-03 12:42:00,78.0,68.0,29.78,North,359,2.0,4.0,72,99.99,,,-99.99,,2013-05-03 16:42:00,
2013-05-03 12:52:00,80.0,68.0,29.78,NNE,32,4.0,8.0,68,99.99,,,-99.99,,2013-05-03 16:52:00,
2013-05-03 13:02:00,78.0,66.0,29.77,NNE,24,7.0,10.0,67,99.99,,,-99.99,,2013-05-03 17:02:00,
2013-05-03 13:12:00,80.0,68.0,29.76,North,11,4.0,8.0,66,99.99,,,-99.99,,2013-05-03 17:12:00,
2013-05-03 13:23:00,80.0,68.0,29.76,North,11,4.0,8.0,66,99.99,,,-99.99,,2013-05-03 17:23:00,
2013-05-03 13:32:00,80.0,68.0,29.75,NNE,23,4.0,10.0,66,99.99,,,-99.99,,2013-05-03 17:32:00,
2013-05-03 13:42:00,80.0,68.0,29.75,NNE,23,4.0,10.0,66,99.99,,,-99.99,,2013-05-03 17:42:00,
2013-05-03 13:52:00,80.0,66.0,29.75,NNE,27,5.0,8.0,63,99.99,,,-99.99,,2013-05-03 17:52:00,
2013-05-03 14:01:00,81.0,67.0,29.74,NE,49,6.0,12.0,62,99.99,,,-99.99,,2013-05-03 18:01:00,
2013-05-03 14:12:00,81.0,67.0,29.74,NE,49,6.0,12.0,62,99.99,,,-99.99,,2013-05-03 18:12:00,
2013-05-03 14:21:00,82.0,65.0,29.73,NNW,330,5.0,9.0,56,99.99,,,-99.99,,2013-05-03 18:21:00,
2013-05-03 14:32:00,85.0,64.0,29.72,NW,305,3.0,8.0,50,99.99,,,-99.99,,2013-05-03 18:32:00,
2013-05-03 14:42:00,85.0,64.0,29.72,NW,305,3.0,8.0,50,99.99,,,-99.99,,2013-05-03 18:42:00,
2013-05-03 14:52:00,84.0,63.0,29.72,NW,308,4.0,11.0,49,99.99,,,-99.99,,2013-05-03 18:52:00,
2013-05-03 15:01:00,85.0,62.0,29.71,NW,312,4.0,9.0,47,99.99,,,-99.99,,2013-05-03 19:01:00,
2013-05-03 15:11:00,85.0,62.0,29.71,NW,312,4.0,9.0,47,99.99,,,-99.99,,2013-05-03 19:11:00,
2013-05-03 15:21:00,85.0,62.0,29.71,West,276,4.0,8.0,47,99.99,,,-99.99,,2013-05-03 19:21:00,
2013-05-03 15:32:00,84.0,62.0,29.70,WNW,295,6.0,9.0,48,99.99,,,-99.99,,2013-05-03 19:32:00,
2013-05-03 15:42:00,84.0,62.0,29.70,WNW,295,6.0,9.0,48,99.99,,,-99.99,,2013-05-03 19:42:00,
2013-05-03 15:52:00,80.0,67.0,29.71,WNW,295,13.0,21.0,64,99.99,,,-99.99,,2013-05-03 19:52:00,
2013-05-03 16:02:00,74.0,72.0,29.71,NNW,336,5.0,9.0,93,99.99,,,-99.99,,2013-05-03 20:02:00,
2013-05-03 16:11:00,74.0,72.0,29.71,NNW,336,5.0,9.0,93,99.99,,,-99.99,,2013-05-03 20:11:00,
2013-05-03 16:21:00,74.0,73.0,29.70,NNE,28,3.0,5.0,96,99.99,,,-99.99,,2013-05-03 20:21:00,
2013-05-03 16:32:00,75.0,73.0,29.70,NNW,330,4.0,9.0,93,99.99,,,-99.99,,2013-05-03 20:32:00,
2013-05-03 16:42:00,75.0,73.0,29.70,NNW,330,4.0,9.0,93,99.99,,,-99.99,,2013-05-03 20:42:00,
2013-05-03 16:52:00,76.0,73.0,29.70,North,1,4.0,6.0,89,99.99,,,-99.99,,2013-05-03 20:52:00,
2013-05-03 17:01:00,77.0,70.0,29.71,NNW,342,7.0,17.0,79,99.99,,,-99.99,,2013-05-03 21:01:00,
2013-05-03 17:11:00,77.0,70.0,29.71,NNW,342,7.0,17.0,79,99.99,,,-99.99,,2013-05-03 21:11:00,
2013-05-03 17:21:00,73.0,70.0,29.72,NNE,28,8.0,13.0,90,99.99,,,-99.99,,2013-05-03 21:21:00,
2013-05-03 17:33:00,72.0,71.0,29.72,NNE,21,6.0,11.0,97,99.99,,,-99.99,,2013-05-03 21:33:00,
2013-05-03 17:42:00,72.0,71.0,29.72,NNE,21,6.0,11.0,97,99.99,,,-99.99,,2013-05-03 21:42:00,
2013-05-03 17:52:00,71.0,71.0,29.71,NNE,24,6.0,13.0,99,99.99,,,-99.99,,2013-05-03 21:52:00,
2013-05-03 18:03:00,71.0,71.0,29.71,NE,37,5.0,10.0,100,99.99,,,-99.99,,2013-05-03 22:03:00,
2013-05-03 18:13:00,71.0,71.0,29.71,NE,37,5.0,10.0,100,99.99,,,-99.99,,2013-05-03 22:13:00,
2013-05-03 18:22:00,72.0,72.0,29.71,NNW,332,4.0,8.0,100,99.99,,,-99.99,,2013-05-03 22:22:00,
2013-05-03 18:32:00,72.0,72.0,29.70,NNW,342,4.0,8.0,100,99.99,,,-99.99,,2013-05-03 22:32:00,
2013-05-03 18:42:00,72.0,72.0,29.70,NNW,342,4.0,8.0,100,99.99,,,-99.99,,2013-05-03 22:42:00,
2013-05-03 18:52:00,73.0,73.0,29.70,NNW,329,4.0,9.0,100,99.99,,,-99.99,,2013-05-03 22:52:00,
2013-05-03 19:02:00,73.0,73.0,29.71,NNE,32,4.0,6.0,100,99.99,,,-99.99,,2013-05-03 23:02:00,
2013-05-03 19:11:00,73.0,73.0,29.71,NNE,32,4.0,6.0,100,99.99,,,-99.99,,2013-05-03 23:11:00,
2013-05-03 19:22:00,73.0,72.0,29.71,NNW,329,4.0,6.0,97,99.99,,,-99.99,,2013-05-03 23:22:00,
2013-05-03 19:31:00,73.0,70.0,29.72,NW,318,3.0,4.0,91,99.99,,,-99.99,,2013-05-03 23:31:00,
2013-05-03 19:41:00,73.0,70.0,29.72,NW,318,3.0,4.0,91,99.99,,,-99.99,,2013-05-03 23:41:00,
2013-05-03 19:52:00,73.0,70.0,29.71,North,1,2.0,5.0,89,99.99,,,-99.99,,2013-05-03 23:52:00,
2013-05-03 20:01:00,73.0,70.0,29.71,NNE,18,2.0,5.0,89,99.99,,,-99.99,,2013-05-04 00:01:00,
2013-05-03 20:11:00,73.0,70.0,29.71,NNE,18,2.0,5.0,89,99.99,,,-99.99,,2013-05-04 00:11:00,
2013-05-03 20:23:00,73.0,70.0,29.72,NNE,21,2.0,5.0,91,99.99,,,-99.99,,2013-05-04 00:23:00,
2013-05-03 20:32:00,73.0,71.0,29.72,NW,323,2.0,3.0,92,99.99,,,-99.99,,2013-05-04 00:32:00,
2013-05-03 20:42:00,73.0,71.0,29.72,NW,323,2.0,3.0,92,99.99,,,-99.99,,2013-05-04 00:42:00,
2013-05-03 20:52:00,72.0,70.0,29.72,NW,325,2.0,4.0,92,99.99,,,-99.99,,2013-05-04 00:52:00,
2013-05-03 21:01:00,72.0,70.0,29.72,North,359,3.0,6.0,94,99.99,,,-99.99,,2013-05-04 01:01:00,
2013-05-03 21:11:00,72.0,70.0,29.72,North,359,3.0,6.0,94,99.99,,,-99.99,,2013-05-04 01:11:00,
2013-05-03 21:21:00,72.0,71.0,29.72,North,10,4.0,6.0,96,99.99,,,-99.99,,2013-05-04 01:21:00,
2013-05-03 21:32:00,71.0,70.0,29.73,NE,44,5.0,8.0,98,99.99,,,-99.99,,2013-05-04 01:32:00,
2013-05-03 21:42:00,71.0,71.0,29.73,NNE,32,5.0,9.0,99,99.99,,,-99.99,,2013-05-04 01:42:00,
2013-05-03 21:52:00,71.0,71.0,29.73,NNE,32,5.0,9.0,99,99.99,,,-99.99,,2013-05-04 01:52:00,
2013-05-03 22:02:00,71.0,71.0,29.73,NNE,15,4.0,7.0,100,99.99,,,-99.99,,2013-05-04 02:02:00,
2013-05-03 22:11:00,71.0,71.0,29.73,NNE,15,4.0,7.0,100,99.99,,,-99.99,,2013-05-04 02:11:00,
2013-05-03 22:21:00,71.0,71.0,29.74,North,6,5.0,10.0,100,99.99,,,-99.99,,2013-05-04 02:21:00,
2013-05-03 22:32:00,70.0,70.0,29.75,NNW,340,3.0,7.0,100,99.99,,,-99.99,,2013-05-04 02:32:00,
2013-05-03 22:42:00,70.0,70.0,29.75,NNW,340,3.0,7.0,100,99.99,,,-99.99,,2013-05-04 02:42:00,
2013-05-03 22:52:00,70.0,70.0,29.74,North,6,4.0,8.0,100,99.99,,,-99.99,,2013-05-04 02:52:00,
2013-05-03 23:02:00,69.0,69.0,29.74,NNE,25,4.0,7.0,100,99.99,,,-99.99,,2013-05-04 03:02:00,
2013-05-03 23:11:00,69.0,69.0,29.74,NNW,328,4.0,8.0,100,99.99,,,-99.99,,2013-05-04 03:11:00,
2013-05-03 23:22:00,69.0,69.0,29.74,NNW,328,4.0,8.0,100,99.99,,,-99.99,,2013-05-04 03:22:00,
2013-05-03 23:33:00,69.0,69.0,29.74,NNW,339,5.0,8.0,100,99.99,,,-99.99,,2013-05-04 03:33:00,
2013-05-03 23:43:00,69.0,69.0,29.74,NNW,339,5.0,8.0,100,99.99,,,-99.99,,2013-05-04 03:43:00,
2013-05-03 23:52:00,69.0,69.0,29.73,NW,308,4.0,6.0,100,99.99,,,-99.99,,2013-05-04 03:52:00,